• In Deutschland
  • Länderverzeichnis
  • Für 7 Tage
  • Wassertemperatur
  • Satellitenkarten
  • Wetterkarte
  • Widgets
  • user-avatar
    Anmelden

    Stündliche Wetter Impchal

    Heute, 23 Oktober, Dienstag

    Zeit Temperatur Niederschläge Wind Luftdruck Luftfeuchtigkeit
    00:00 +20°C° 0 mm 1 m/S 692 mmHg 90%
    01:00 +19°C° 0 mm 1 m/S 692 mmHg 90%
    02:00 +19°C° 0 mm 1 m/S 692 mmHg 91%
    03:00 +19°C° 0 mm 1 m/S 692 mmHg 91%
    04:00 +19°C° 0 mm 1 m/S 692 mmHg 92%
    05:00 +19°C° 0 mm 1 m/S 692 mmHg 93%
    06:00 +17°C° 0 mm 0 m/S 692 mmHg 94%
    07:00 +20°C° 0 mm 0 m/S 693 mmHg 85%
    08:00 +22°C° 0 mm 0 m/S 694 mmHg 76%
    09:00 +25°C° 0 mm 0 m/S 695 mmHg 67%
    10:00 +28°C° 0.1 mm 1 m/S 694 mmHg 61%
    11:00 +29°C° 0.1 mm 1 m/S 694 mmHg 55%
    12:00 +30°C° 0.1 mm 1 m/S 694 mmHg 49%
    13:00 +30°C° 0.1 mm 1 m/S 693 mmHg 50%
    14:00 +30°C° 0.1 mm 1 m/S 692 mmHg 51%
    15:00 +29°C° 0.1 mm 1 m/S 692 mmHg 51%
    16:00 +27°C° 0 mm 1 m/S 691 mmHg 62%
    17:00 +22°C° 0 mm 0 m/S 691 mmHg 73%
    18:00 +20°C° 0 mm 0 m/S 691 mmHg 84%
    19:00 +19°C° 0 mm 0 m/S 691 mmHg 86%
    20:00 +19°C° 0 mm 0 m/S 692 mmHg 88%
    21:00 +20°C° 0 mm 1 m/S 692 mmHg 90%
    22:00 +20°C° 0 mm 1 m/S 692 mmHg 91%
    23:00 +19°C° 0 mm 1 m/S 692 mmHg 91%

    Morgen, 24 Oktober, Mittwoch

    Zeit Temperatur Niederschläge Wind Luftdruck Luftfeuchtigkeit
    00:00 +19°C° 0 mm 1 m/S 693 mmHg 92%
    01:00 +19°C° 0 mm 1 m/S 692 mmHg 92%
    02:00 +19°C° 0 mm 1 m/S 692 mmHg 92%
    03:00 +18°C° 0 mm 1 m/S 692 mmHg 92%
    04:00 +18°C° 0 mm 1 m/S 692 mmHg 92%
    05:00 +18°C° 0 mm 1 m/S 692 mmHg 92%
    06:00 +18°C° 0 mm 1 m/S 692 mmHg 91%
    07:00 +21°C° 0 mm 1 m/S 693 mmHg 80%
    08:00 +22°C° 0 mm 0 m/S 694 mmHg 69%
    09:00 +25°C° 0 mm 0 m/S 695 mmHg 58%
    10:00 +28°C° 0 mm 1 m/S 695 mmHg 53%
    11:00 +29°C° 0 mm 1 m/S 694 mmHg 49%
    12:00 +30°C° 0 mm 1 m/S 694 mmHg 45%
    13:00 +30°C° 0.1 mm 1 m/S 693 mmHg 47%
    14:00 +29°C° 0.1 mm 1 m/S 693 mmHg 48%
    15:00 +29°C° 0.1 mm 1 m/S 692 mmHg 50%
    16:00 +26°C° 0.1 mm 1 m/S 692 mmHg 61%
    17:00 +22°C° 0.1 mm 0 m/S 692 mmHg 72%
    18:00 +19°C° 0.1 mm 0 m/S 691 mmHg 83%
    19:00 +19°C° 0 mm 0 m/S 692 mmHg 85%
    20:00 +18°C° 0 mm 0 m/S 692 mmHg 87%
    21:00 +20°C° 0 mm 1 m/S 693 mmHg 89%
    22:00 +19°C° 0 mm 1 m/S 693 mmHg 89%
    23:00 +19°C° 0 mm 1 m/S 693 mmHg 90%

    übermorgen, 25 Oktober, Donnerstag

    Zeit Temperatur Niederschläge Wind Luftdruck Luftfeuchtigkeit
    00:00 +19°C° 0 mm 1 m/S 693 mmHg 91%
    01:00 +18°C° 0 mm 1 m/S 693 mmHg 91%
    02:00 +18°C° 0 mm 1 m/S 693 mmHg 91%
    03:00 +18°C° 0 mm 1 m/S 693 mmHg 91%
    04:00 +18°C° 0 mm 1 m/S 693 mmHg 91%
    05:00 +18°C° 0 mm 1 m/S 693 mmHg 91%
    06:00 +18°C° 0 mm 1 m/S 693 mmHg 91%
    07:00 +21°C° 0 mm 1 m/S 695 mmHg 80%
    08:00 +24°C° 0 mm 1 m/S 696 mmHg 69%
    09:00 +27°C° 0 mm 1 m/S 697 mmHg 58%
    10:00 +28°C° 0 mm 1 m/S 696 mmHg 54%
    11:00 +29°C° 0 mm 1 m/S 696 mmHg 50%
    12:00 +30°C° 0 mm 1 m/S 695 mmHg 46%
    13:00 +30°C° 0 mm 1 m/S 695 mmHg 48%
    14:00 +29°C° 0 mm 1 m/S 694 mmHg 49%
    15:00 +29°C° 0 mm 1 m/S 693 mmHg 51%
    16:00 +26°C° 0 mm 1 m/S 693 mmHg 62%
    17:00 +24°C° 0 mm 1 m/S 693 mmHg 73%
    18:00 +19°C° 0 mm 0 m/S 693 mmHg 84%
    19:00 +19°C° 0 mm 0 m/S 693 mmHg 86%
    20:00 +18°C° 0 mm 0 m/S 694 mmHg 88%
    21:00 +20°C° 0 mm 1 m/S 694 mmHg 90%
    22:00 +19°C° 0 mm 1 m/S 694 mmHg 91%
    23:00 +19°C° 0 mm 1 m/S 694 mmHg 91%

    26 Oktober, Freitag

    Zeit Temperatur Niederschläge Wind Luftdruck Luftfeuchtigkeit
    00:00 +19°C° 0 mm 1 m/S 694 mmHg 92%
    01:00 +19°C° 0 mm 1 m/S 694 mmHg 92%
    02:00 +19°C° 0 mm 1 m/S 694 mmHg 92%
    03:00 +18°C° 0 mm 1 m/S 694 mmHg 92%
    04:00 +18°C° 0 mm 1 m/S 694 mmHg 92%
    05:00 +18°C° 0 mm 1 m/S 695 mmHg 91%
    06:00 +18°C° 0 mm 1 m/S 695 mmHg 91%
    07:00 +21°C° 0 mm 1 m/S 696 mmHg 81%
    08:00 +24°C° 0 mm 1 m/S 697 mmHg 70%
    09:00 +27°C° 0 mm 1 m/S 698 mmHg 59%
    10:00 +28°C° 0 mm 1 m/S 697 mmHg 55%
    11:00 +29°C° 0 mm 1 m/S 697 mmHg 50%
    12:00 +30°C° 0 mm 2 m/S 696 mmHg 45%
    13:00 +30°C° 0 mm 1 m/S 696 mmHg 47%
    14:00 +29°C° 0 mm 1 m/S 695 mmHg 48%
    15:00 +29°C° 0 mm 1 m/S 694 mmHg 49%
    16:00 +27°C° 0 mm 1 m/S 694 mmHg 61%
    17:00 +24°C° 0 mm 1 m/S 694 mmHg 72%
    18:00 +21°C° 0 mm 1 m/S 693 mmHg 84%
    19:00 +21°C° 0 mm 1 m/S 694 mmHg 85%
    20:00 +20°C° 0 mm 1 m/S 694 mmHg 87%
    21:00 +20°C° 0 mm 1 m/S 695 mmHg 89%
    22:00 +20°C° 0 mm 1 m/S 695 mmHg 89%
    23:00 +19°C° 0 mm 1 m/S 694 mmHg 89%

    27 Oktober, Samstag

    Zeit Temperatur Niederschläge Wind Luftdruck Luftfeuchtigkeit
    00:00 +19°C° 0 mm 1 m/S 694 mmHg 90%
    01:00 +19°C° 0 mm 1 m/S 694 mmHg 89%
    02:00 +19°C° 0 mm 1 m/S 694 mmHg 89%
    03:00 +18°C° 0 mm 1 m/S 694 mmHg 88%
    04:00 +18°C° 0 mm 1 m/S 694 mmHg 88%
    05:00 +18°C° 0 mm 1 m/S 694 mmHg 87%
    06:00 +18°C° 0 mm 1 m/S 695 mmHg 87%
    07:00 +21°C° 0 mm 1 m/S 696 mmHg 77%
    08:00 +24°C° 0 mm 1 m/S 696 mmHg 67%
    09:00 +27°C° 0 mm 1 m/S 697 mmHg 56%
    10:00 +28°C° 0 mm 1 m/S 697 mmHg 52%
    11:00 +29°C° 0 mm 1 m/S 696 mmHg 48%
    12:00 +31°C° 0 mm 1 m/S 696 mmHg 44%
    13:00 +30°C° 0 mm 1 m/S 695 mmHg 45%
    14:00 +30°C° 0 mm 1 m/S 694 mmHg 47%
    15:00 +29°C° 0 mm 1 m/S 694 mmHg 48%
    16:00 +27°C° 0 mm 1 m/S 693 mmHg 59%
    17:00 +24°C° 0 mm 1 m/S 693 mmHg 69%
    18:00 +20°C° 0 mm 0 m/S 693 mmHg 80%
    19:00 +21°C° 0 mm 1 m/S 694 mmHg 82%
    20:00 +21°C° 0 mm 1 m/S 694 mmHg 84%
    21:00 +20°C° 0 mm 1 m/S 695 mmHg 86%
    22:00 +20°C° 0 mm 1 m/S 694 mmHg 86%
    23:00 +20°C° 0 mm 1 m/S 694 mmHg 86%

    28 Oktober, Sonntag

    Zeit Temperatur Niederschläge Wind Luftdruck Luftfeuchtigkeit
    00:00 +19°C° 0 mm 1 m/S 694 mmHg 87%
    01:00 +19°C° 0 mm 1 m/S 694 mmHg 86%
    02:00 +20°C° 0 mm 1 m/S 694 mmHg 85%
    03:00 +20°C° 0 mm 1 m/S 694 mmHg 84%
    04:00 +20°C° 0 mm 1 m/S 694 mmHg 82%
    05:00 +20°C° 0 mm 1 m/S 694 mmHg 80%
    06:00 +20°C° 0 mm 1 m/S 695 mmHg 78%
    07:00 +22°C° 0 mm 1 m/S 695 mmHg 73%
    08:00 +24°C° 0 mm 1 m/S 696 mmHg 68%
    09:00 +26°C° 0 mm 1 m/S 697 mmHg 63%
    10:00 +26°C° 0.1 mm 1 m/S 696 mmHg 62%
    11:00 +27°C° 0.1 mm 1 m/S 696 mmHg 61%
    12:00 +27°C° 0.1 mm 1 m/S 695 mmHg 60%
    13:00 +27°C° 0.1 mm 1 m/S 695 mmHg 60%
    14:00 +27°C° 0.1 mm 1 m/S 694 mmHg 60%
    15:00 +27°C° 0.1 mm 1 m/S 694 mmHg 60%
    16:00 +25°C° 0.1 mm 1 m/S 694 mmHg 66%
    17:00 +21°C° 0.1 mm 0 m/S 694 mmHg 72%
    18:00 +20°C° 0.1 mm 0 m/S 694 mmHg 78%
    19:00 +19°C° 0 mm 0 m/S 694 mmHg 79%
    20:00 +19°C° 0 mm 0 m/S 694 mmHg 79%
    21:00 +18°C° 0 mm 0 m/S 694 mmHg 80%
    22:00 +18°C° 0 mm 0 m/S 694 mmHg 80%
    23:00 +18°C° 0 mm 0 m/S 694 mmHg 79%

    29 Oktober, Montag

    Zeit Temperatur Niederschläge Wind Luftdruck Luftfeuchtigkeit
    00:00 +20°C° 0 mm 1 m/S 694 mmHg 78%
    01:00 +20°C° 0 mm 1 m/S 694 mmHg 77%
    02:00 +20°C° 0 mm 1 m/S 694 mmHg 77%
    03:00 +20°C° 0 mm 1 m/S 694 mmHg 77%
    04:00 +20°C° 0 mm 1 m/S 694 mmHg 78%
    05:00 +17°C° 0 mm 0 m/S 694 mmHg 79%
    06:00 +17°C° 0 mm 0 m/S 694 mmHg 80%
    07:00 +20°C° 0.2 mm 1 m/S 695 mmHg 80%
    08:00 +21°C° 0.2 mm 1 m/S 695 mmHg 80%
    09:00 +22°C° 0.2 mm 1 m/S 696 mmHg 80%
    10:00 +23°C° 0.1 mm 1 m/S 695 mmHg 73%
    11:00 +25°C° 0.1 mm 1 m/S 695 mmHg 66%
    12:00 +26°C° 0.1 mm 1 m/S 695 mmHg 59%
    13:00 +25°C° 0.2 mm 1 m/S 694 mmHg 65%
    14:00 +24°C° 0.2 mm 1 m/S 694 mmHg 70%
    15:00 +23°C° 0.2 mm 1 m/S 693 mmHg 76%
    16:00 +22°C° 0.1 mm 1 m/S 693 mmHg 80%
    17:00 +21°C° 0.1 mm 1 m/S 693 mmHg 85%
    18:00 +19°C° 0.1 mm 1 m/S 693 mmHg 89%
    19:00 +19°C° 0 mm 1 m/S 693 mmHg 88%
    20:00 +19°C° 0 mm 1 m/S 694 mmHg 87%
    21:00 +18°C° 0 mm 1 m/S 694 mmHg 86%
    22:00 +18°C° 0 mm 1 m/S 694 mmHg 85%
    23:00 +18°C° 0 mm 1 m/S 694 mmHg 83%
    Mehr zeigen